#timestamp,LO_Frequency,Hit 
1505278815.4,286047005.0,N
1505278835.3,286047002.7,N
1505278855.1,286047001.2,N
1505278875.8,286047002.2,N
1505278895.7,286047005.3,N
1505278915.5,286047007.4,P
1505278935.3,286047003.4,N
1505278955.2,286047001.5,N
1505278975.9,286046994.9,N
1505278995.7,286046996.9,N
1505279015.6,286046995.3,N
1505279035.4,286046998.9,N
1505279055.2,286047000.3,N
1505279075.1,286047002.8,N
1505279076.0,286047002.8,N
1505279095.8,286047004.4,N
1505279115.6,286047000.1,N
1505279135.4,286046998.2,N
1505279155.3,286046997.9,N
1505279175.1,286046997.2,N
1505279195.8,286046997.3,N
1505279215.7,286046996.0,N
1505279235.5,286046995.7,N
1505279255.3,286046995.8,N
1505279275.2,286046993.5,N
1505279295.9,286046993.5,N
1505279315.7,286046994.1,N
1505279335.6,286046992.1,N
1505279355.4,286046994.1,N
1505279375.2,286046995.4,N
1505279395.1,286046995.0,N
1505279396.0,286046995.0,N
1505279415.8,286046994.9,N
1505279435.6,286046995.2,N
1505279455.4,286046997.6,N
1505279475.3,286046997.8,N
1505279495.1,286046997.5,N
1505279515.8,286046999.6,N
1505279535.7,286046999.1,N
1505279555.5,286046995.5,N
1505279575.3,286046996.3,N
1505279595.2,286046995.6,N
1505279615.9,286046995.4,N
1505279635.7,286046995.3,N
1505279655.6,286046993.8,N
1505279675.4,286046995.9,N
1505279695.2,286046997.8,N
1505279715.1,286046998.6,N
1505279716.0,286046998.6,N
1505279735.8,286046999.9,N
1505279755.6,286047002.3,N
1505279775.4,286047001.6,N
1505279795.3,286047000.0,N
1505279815.1,286047003.9,N
1505279835.8,286047002.3,N
1505279855.7,286047000.9,N
1505279875.5,286046998.4,N
1505279895.3,286047004.0,N
1505279915.2,286047003.8,N
1505279935.9,286047005.7,N
1505279955.7,286047007.2,N
1505279975.6,286047006.6,N
1505279995.4,286047005.4,N
1505280015.2,286047001.0,N
1505280035.1,286047004.0,N
1505280036.0,286047004.0,N
1505280055.8,286047003.3,N
1505280075.6,286047004.2,N
1505280095.5,286047001.8,N
1505280115.3,286047004.4,N
1505280135.1,286047005.2,N
1505280155.8,286047005.3,N
1505280175.7,286047003.4,N
1505280195.5,286047001.4,N
1505280215.3,286047002.1,N
1505280235.2,286047003.8,N
1505280255.0,286047000.3,N
1505280255.9,286047000.3,N
1505280275.7,286046996.5,N
1505280295.6,286047005.9,N
1505280315.4,286047004.8,N
1505280335.2,286047003.8,N
1505280355.1,286047004.2,N
1505280356.0,286047004.2,N
1505280375.8,286047006.8,N
1505280395.6,286047004.5,N
1505280415.5,286047004.2,N
1505280435.3,286047001.0,N
1505280455.1,286047004.2,N
1505280475.9,286047006.8,P
1505280495.7,286046999.7,N
1505280515.5,286046999.5,N
1505280535.4,286046996.8,N
1505280555.2,286047000.5,N
1505280575.0,286047001.1,N
1505280575.9,286047001.1,N
1505280595.8,286047003.9,N
1505280615.6,286047003.9,N
1505280635.4,286046999.5,N
1505280655.3,286046999.1,N
1505280675.1,286046998.0,N
1505280676.0,286046998.0,N
1505280695.8,286046997.0,N
1505280715.6,286047000.5,N
1505280735.5,286047002.9,N
1505280755.3,286046998.1,N
1505280775.1,286046999.7,N
1505280795.9,286047003.4,N
1505280815.7,286047004.2,N
1505280835.5,286047002.3,N
1505280855.4,286046996.8,N
1505280875.2,286046998.4,N
1505280895.0,286047003.4,N
1505280895.9,286047003.4,N
1505280915.8,286047010.8,P
1505280935.6,286047008.2,N
1505280955.4,286047004.6,N
1505280975.3,286047009.0,N
1505280995.1,286047006.1,N
1505280996.0,286047006.1,N
1505281015.8,286047008.4,N
1505281035.7,286047008.4,N
1505281055.5,286047008.1,N
1505281075.3,286047009.5,P
1505281095.2,286047005.9,P
1505281115.9,286047005.0,P
1505281135.7,286047005.1,P
1505281155.6,286046997.3,P
1505281175.4,286046998.0,N
1505281195.2,286046993.6,N
1505281215.1,286046987.3,N
1505281216.0,286046987.3,N
1505281235.8,286046986.8,N
1505281255.6,286046983.4,N
1505281275.5,286046985.0,N
1505281295.3,286046986.9,N
1505281315.1,286046989.0,N
1505281335.9,286046986.9,N
1505281355.7,286046992.1,N
1505281375.5,286046990.5,N
1505281395.3,286046996.3,N
1505281415.2,286046997.6,N
1505281435.0,286046990.2,N
1505281435.9,286046990.2,N
1505281455.7,286046991.3,N
1505281475.6,286046989.9,N
1505281495.4,286046986.5,N
1505281515.2,286046989.8,N
1505281535.1,286046987.2,N
1505281536.0,286046987.2,N
1505281555.8,286046982.1,P
1505281575.6,286046997.7,N
1505281595.5,286047000.8,N
1505281615.3,286047002.8,N
1505281635.1,286047004.0,N
1505281655.9,286047003.9,N
1505281675.7,286047003.4,N
1505281695.5,286047002.2,N
1505281715.4,286047002.7,N
1505281735.2,286046998.4,N
1505281755.0,286047001.0,N
1505281755.9,286047001.0,N
1505281775.8,286047000.5,N
1505281795.6,286046999.3,N
1505281815.4,286047001.0,N
1505281835.2,286047004.1,N
1505281855.1,286047002.8,N
1505281856.0,286047002.8,N
1505281875.8,286047003.6,N
1505281895.6,286047003.3,N
1505281915.5,286047000.2,N
1505281935.3,286047001.4,N
1505281955.1,286047005.4,N
1505281975.9,286047000.9,N
1505281995.7,286046997.0,N
1505282015.5,286046997.5,N
1505282035.4,286046995.4,N
1505282055.2,286046997.3,N
1505282075.0,286047000.8,N
1505282075.9,286047000.8,N
1505282095.8,286047005.4,N
1505282115.6,286047006.2,N
1505282135.4,286047009.3,P
1505282155.3,286047015.6,P
1505282175.1,286047013.2,N
1505282176.0,286047013.2,N
1505282195.8,286047010.0,N
1505282215.7,286047010.5,N
1505282235.5,286047011.6,N
1505282255.3,286047004.9,N
1505282275.1,286047004.6,N
1505282295.9,286047001.6,N
1505282315.7,286047004.0,N
1505282335.5,286047005.1,N
1505282355.4,286047001.7,N
1505282375.2,286047002.7,N
1505282395.0,286046999.5,N
1505282395.9,286046999.5,N
